CAPE
0 0 0 0 0 0 7 12 12 7 0 0 0 0 0 0 0 0 0 0 0 0 0 0 0 0 0 0 0 0 0 0 0 0 0 0 0 0 0 0 0 0 0 0 0 0 0 0 0 0 0 0 0 939 1865 2486 2654 2731 2816 2787 2715 2478 2288 2351 2412 2079 1873 1603 1659 1612 1575 1498 1476 1696 1628 1569 1694 1782 1819 1722 1508 1397 1455 1580 1644 1718
0 0 3 3 12 13 11 11 6 1 0 0 0 0 0 0 0 0 0 0 0 0 0 0 0 0 0 0 0 0 0 0 0 0 0 0 0 0 0 0 0 0 0 0 0 0 0 0 0 0 0 0 61 811 2449 2347 2413 2655 2794 2843 2782 2602 2390 2407 2336 2401 2015 1573 1657 1502 1615 1477 1609 1723 1757 1664 1675 1777 1848 1844 1706 1522 1494 1566 1583 1725
1 0 0 0 1 2 0 0 7 0 0 0 0 0 0 0 0 0 0 0 0 0 0 0 0 0 0 0 0 0 0 0 0 0 0 0 0 0 0 0 0 0 0 0 0 0 0 0 2 0 0 0 13 807 2671 2433 2364 2524 2570 2596 2616 2593 2518 2568 2527 2220 2038 1778 1532 1447 1405 1451 1663 1705 1705 1827 1746 1764 1838 1867 1788 1615 1495 1564 1572 1702
0 0 0 0 0 0 0 0 0 0 0 0 0 0 0 0 0 0 0 0 0 0 0 0 0 0 0 0 0 0 0 0 0 0 0 0 0 4 8 7 0 0 0 0 0 0 0 0 5 8 0 0 1 942 2734 2520 2432 2452 2505 2568 2595 2531 2435 2452 2375 2367 2289 1965 1616 1458 1318 1527 1743 1725 1684 1644 1822 1876 1990 1983 1956 1755 1600 1620 1638 1647
0 0 0 0 0 0 0 0 0 0 0 0 0 0 0 0 0 0 0 0 0 0 0 0 0 0 0 0 0 0 0 0 0 0 0 0 0 0 0 0 0 0 0 0 0 0 0 0 0 60 14 1 245 1500 2729 2561 2437 2391 2495 2556 2542 2415 2304 2278 2268 2232 2185 2006 1623 1554 1296 1660 1845 1548 1549 1579 1715 1864 1900 1995 1993 1985 1760 1662 1668 1623
0 0 0 0 0 0 0 0 0 0 0 0 0 0 0 0 0 0 0 0 0 0 0 0 0 0 0 0 0 0 0 0 0 0 0 0 0 0 0 0 0 0 0 0 0 0 0 0 0 11 79 166 599 1752 2745 2665 2568 2499 2697 2678 2551 2364 2275 2248 2215 2112 1988 1984 1852 1535 1310 1690 1875 1661 1534 1603 1741 1782 1874 2026 2098 2076 1920 1738 1686 1645
0 0 0 0 0 0 0 0 0 0 0 0 0 0 0 0 0 0 0 0 0 0 0 0 0 0 0 0 0 0 0 0 0 0 0 0 0 0 0 0 0 0 0 0 0 0 0 0 0 0 234 389 798 1634 2715 2760 2790 2798 2918 2746 2508 2476 2400 2312 2218 2023 1967 1912 1878 1860 1565 1611 1942 1829 1727 1805 1732 1752 1721 1975 2090 2058 1985 1799 1711 1674
0 0 0 0 0 0 0 0 0 0 0 0 0 0 0 0 0 0 0 0 0 0 0 0 0 0 0 0 0 0 0 0 0 0 0 0 0 0 0 0 0 0 0 0 0 0 0 0 0 0 198 575 879 1537 2710 2923 3130 3129 3011 2847 2714 2623 2490 2274 2210 1975 1948 1895 1867 1850 1654 1414 1788 1857 1875 1880 1776 1729 1658 1734 1979 2062 1982 1821 1709 1681
0 0 0 0 0 0 0 0 0 0 0 0 0 0 0 0 0 0 0 0 0 0 0 0 0 0 0 0 0 0 0 0 0 0 0 0 0 0 0 0 0 0 0 0 0 0 0 0 0 0 2 611 975 1488 2647 3009 3210 3186 2982 2834 2815 2719 2444 2264 2044 1844 1750 1800 1785 1788 1694 1449 1540 1581 1524 1638 1738 1741 1614 1492 1703 1957 1980 1874 1720 1623
0 0 0 0 0 0 0 0 0 0 0 0 0 0 0 0 0 0 0 0 1 0 0 1 4 2 0 1 0 0 0 0 0 0 0 0 0 0 0 0 0 0 0 0 0 0 0 0 0 0 0 177 1031 1522 2460 3031 3237 3196 2860 2810 2674 2521 2117 1889 1819 1644 1586 1597 1647 1685 1672 1488 1410 1477 1518 1670 1749 1679 1513 1462 1610 1758 1863 1809 1702 1614
0 0 0 0 0 0 0 0 0 0 0 0 0 0 0 0 0 0 0 0 0 0 0 0 2 0 4 0 0 0 0 0 0 0 0 0 0 0 0 0 0 0 0 0 0 0 0 0 0 0 0 0 480 1349 2277 2880 2962 2762 2758 2640 2412 2190 1888 1654 1579 1542 1507 1478 1473 1614 1632 1521 1507 1489 1542 1680 1702 1563 1371 1489 1628 1635 1685 1687 1655 1607
0 0 0 0 0 0 0 0 0 0 0 0 0 0 0 0 0 0 0 0 0 0 5 8 3 0 2 0 0 0 0 0 0 0 0 0 0 0 0 0 0 0 0 0 0 0 0 0 0 0 0 0 0 658 1329 2528 2733 2526 2446 2323 2100 2004 1816 1648 1525 1463 1437 1444 1443 1506 1649 1576 1486 1541 1657 1756 1726 1528 1206 1372 1580 1616 1614 1572 1520 1450
0 0 0 0 0 0 0 0 0 0 0 0 0 0 0 0 0 0 0 0 0 0 0 0 0 0 2 0 0 0 0 1 0 0 0 0 0 0 0 0 0 0 0 0 0 0 0 0 0 0 0 0 0 39 740 1970 2659 2462 2360 2261 2100 2010 1836 1617 1499 1462 1446 1436 1448 1440 1571 1666 1623 1472 1318 1595 1605 1382 1158 1237 1487 1615 1590 1555 1487 1418
0 0 0 0 0 0 0 0 0 0 0 0 0 0 0 0 2 0 0 0 0 0 0 0 0 0 0 0 1 10 9 9 6 2 0 0 0 0 0 0 0 0 0 0 0 0 0 0 0 0 0 0 0 0 0 802 2303 2527 2328 2254 2090 2041 1909 1683 1535 1487 1474 1461 1474 1460 1460 1584 1554 1232 1062 1245 1382 1200 1144 1192 1359 1567 1603 1563 1530 1454
0 0 2 0 0 0 1 0 0 0 0 0 0 0 0 0 0 0 0 0 0 0 0 0 0 0 0 0 0 0 9 4 0 0 0 0 1 0 0 0 0 0 0 0 0 0 0 0 0 0 0 0 0 0 0 0 1048 2374 2215 2213 2118 2097 2024 1815 1584 1521 1484 1464 1479 1482 1465 1504 1424 1418 1282 1475 1409 1276 1278 1297 1348 1466 1605 1601 1580 1467
0 0 0 0 0 0 0 0 1 1 0 0 0 0 0 0 0 0 0 0 1 0 0 0 0 0 7 13 1 2 0 0 0 0 0 0 0 0 0 0 0 0 0 0 0 0 0 0 0 0 0 0 0 0 0 0 78 1588 2209 2220 2141 2133 2103 1936 1712 1565 1522 1484 1461 1476 1433 1430 1503 1604 1487 1338 1402 1262 1189 1356 1434 1376 1453 1624 1636 1567
0 0 0 0 0 0 2 8 11 6 0 0 0 0 0 0 0 0 0 0 0 1 0 0 0 0 26 16 4 0 0 0 0 0 0 0 0 0 0 0 0 0 0 0 0 0 0 0 0 0 0 0 0 0 0 0 0 510 1931 2245 2230 2158 2162 2044 1846 1652 1548 1506 1464 1410 1348 1376 1498 1622 1621 1552 1384 1307 1196 1182 1418 1430 1378 1403 1489 1527
0 0 0 1 2 3 15 10 6 6 0 0 0 0 0 0 0 0 0 0 1 1 0 0 0 0 0 0 0 0 0 0 0 0 0 0 0 0 0 0 0 0 0 0 0 0 0 0 0 0 0 0 0 0 0 0 0 0 1081 1928 2320 2228 2202 2102 1928 1734 1603 1534 1453 1370 1292 1296 1370 1494 1691 1782 1645 1207 1219 1103 1177 1345 1373 1305 1421 1455
0 0 1 9 2 8 8 10 3 0 4 0 0 0 0 0 0 0 0 0 0 0 2 0 0 0 14 22 1 0 0 0 0 0 0 0 0 0 0 0 0 0 0 0 0 0 0 0 0 0 0 0 0 0 0 0 0 0 116 1188 2176 2289 2208 2140 2003 1836 1699 1591 1490 1378 1257 1261 1284 1388 1541 1712 1749 1560 1139 1008 1011 1028 1149 1293 1341 1352
13 0 0 4 16 3 1 6 4 4 12 6 0 0 0 0 0 0 0 0 0 2 1 0 0 0 22 2 11 1 0 0 0 0 0 0 0 0 0 0 0 0 0 0 0 0 0 0 0 0 0 0 0 0 0 0 0 0 5 536 1251 2221 2240 2204 2096 1934 1783 1654 1521 1374 1255 1215 1232 1286 1406 1533 1672 1668 1501 925 1063 1196 1263 1338 1343 1277
0 0 0 0 45 3 1 3 12 14 18 7 1 0 0 0 0 0 0 0 0 3 1 3 1 6 17 39 14 1 0 0 0 0 0 0 0 0 0 0 0 0 0 0 0 0 0 0 0 0 0 0 0 0 0 0 0 0 4 326 762 1731 2288 2266 2157 2009 1840 1684 1554 1424 1294 1206 1184 1226 1248 1315 1472 1604 1555 1304 1127 1275 1383 1456 1425 1313
0 0 0 0 0 0 1 6 16 15 23 11 0 0 0 0 0 1 0 0 0 0 0 0 0 0 2 17 3 0 0 0 0 0 0 2 0 1 0 0 0 0 0 0 0 0 0 0 0 0 0 0 0 0 0 0 0 0 6 241 823 1324 2311 2378 2263 2130 1951 1749 1598 1496 1355 1220 1188 1201 1191 1212 1320 1465 1461 1361 1186 1348 1487 1504 1530 1445
0 0 0 0 0 0 7 5 4 4 3 0 2 0 6 5 0 1 0 0 0 0 0 1 2 0 25 66 16 0 0 0 0 0 0 0 0 0 0 0 0 0 0 0 0 0 0 1 0 0 0 0 0 0 0 0 0 0 7 248 766 1313 2153 2430 2337 2204 2036 1851 1714 1589 1454 1325 1256 1236 1184 1150 1166 1290 1426 1315 1181 1394 1493 1572 1594 1533
38 9 0 2 3 6 8 2 12 8 3 4 2 11 14 5 2 2 0 0 0 0 0 0 0 0 34 7 0 0 0 0 0 0 0 0 1 0 0 0 0 0 0 0 0 0 0 2 4 0 0 0 0 0 0 0 0 0 10 238 584 1174 1995 2384 2374 2272 2135 1974 1822 1710 1582 1464 1345 1239 1164 1109 1077 1132 1258 1385 1294 1431 1489 1569 1629 1643
0 8 0 0 8 16 12 6 2 4 0 9 12 14 12 8 10 0 0 0 0 3 0 0 0 0 0 0 0 0 0 0 0 0 0 0 0 1 0 0 0 0 0 0 0 0 0 0 0 1 0 0 0 0 0 0 0 0 100 239 417 903 1724 2347 2370 2304 2175 2005 1886 1755 1648 1500 1383 1266 1138 1054 1017 1081 1181 1293 1389 1508 1505 1525 1610 1667
13 24 13 29 14 10 15 4 0 0 3 13 13 14 17 8 3 0 0 0 0 1 0 0 0 0 0 0 0 0 0 0 0 0 0 1 2 1 0 0 0 0 0 0 0 0 0 0 0 0 0 0 0 0 0 0 0 0 0 205 372 719 1413 2251 2371 2302 2177 2026 1878 1765 1663 1533 1417 1279 1144 1041 1004 1054 1162 1359 1545 1576 1565 1523 1551 1580
23 12 24 23 16 13 1 0 0 0 11 18 22 22 15 15 5 0 0 0 0 0 1 0 1 3 0 0 0 0 0 0 0 0 0 3 4 3 1 1 1 0 0 0 4 5 3 0 0 0 0 0 0 0 0 0 0 0 2 36 250 592 1030 1866 2342 2254 2144 2020 1887 1766 1649 1543 1402 1296 1205 1119 1059 1079 1159 1277 1424 1486 1507 1572 1540 1501
0 5 20 37 14 3 2 0 5 3 7 13 13 18 21 15 9 1 0 0 0 0 0 0 2 7 2 0 1 0 0 0 0 0 0 2 6 5 2 0 3 0 0 0 5 12 8 3 0 0 0 0 0 0 0 0 0 0 0 327 437 745 1270 1784 2043 2205 2116 1986 1876 1735 1636 1551 1452 1370 1288 1225 1162 1148 1180 1215 1292 1366 1405 1313 1378 1542
4 6 0 0 0 0 1 2 4 0 7 8 5 15 24 16 14 4 0 0 0 0 1 2 6 9 3 2 2 0 0 0 0 1 3 6 5 0 1 1 0 0 0 0 4 5 3 1 0 0 0 0 0 0 0 0 0 0 32 523 779 804 1241 1839 1996 1970 1942 1896 1808 1743 1690 1614 1540 1399 1329 1264 1213 1191 1192 1192 1238 1272 1359 1351 1264 1452
1 14 3 7 0 2 2 2 4 3 3 4 1 11 22 20 11 4 0 0 0 0 8 8 4 1 0 4 0 0 0 0 0 1 0 0 1 6 4 0 1 1 2 4 8 8 6 1 0 0 0 0 0 0 0 0 0 0 224 645 1021 1007 1272 1690 1994 2023 1968 1915 1822 1772 1705 1644 1535 1414 1324 1284 1249 1235 1206 1201 1221 1200 1302 1306 1415 1301
0 14 12 11 2 3 46 6 12 0 0 2 4 8 8 9 5 0 0 0 0 1 7 6 4 0 1 4 0 0 0 1 2 1 0 0 1 4 3 1 5 7 6 7 7 6 2 1 2 1 0 0 0 0 0 0 0 0 226 780 849 892 1180 1584 1731 1835 1922 1872 1851 1803 1771 1710 1601 1480 1359 1259 1269 1274 1246 1207 1169 1213 1170 1172 1076 1110
12 12 25 7 0 1 51 5 7 4 10 21 14 5 3 0 0 0 0 0 0 4 1 1 0 8 2 2 0 0 0 0 7 11 2 0 3 6 3 5 6 5 2 5 5 0 12 2 3 2 0 0 0 0 0 0 0 0 121 798 966 1002 1092 1459 1674 1733 1664 1644 1636 1683 1729 1699 1627 1522 1392 1283 1220 1207 1223 1195 1130 1112 1124 1163 1049 1198
7 10 5 2 0 0 2 10 31 18 10 5 0 0 0 0 0 0 0 0 0 1 0 1 8 17 13 17 7 0 0 1 1 4 10 12 3 2 2 8 5 4 2 0 4 6 7 13 5 4 1 0 0 0 0 0 0 71 238 635 878 1016 1163 1413 1720 1767 1799 1783 1680 1618 1609 1626 1561 1449 1372 1302 1204 1158 1135 1141 1124 1070 1063 1110 1119 1196
3 9 2 4 0 0 34 22 36 12 0 0 0 0 0 0 0 0 0 0 0 1 0 9 14 4 12 13 15 5 0 0 7 2 5 4 0 2 4 4 6 4 1 6 10 2 1 18 45 10 1 0 0 0 0 0 8 162 218 282 664 717 843 1028 1090 1208 1301 1406 1514 1537 1405 1290 1269 1276 1224 1244 1198 1095 1051 1048 1058 1050 1038 1073 1033 938
0 0 0 0 0 0 0 25 22 16 1 0 3 6 3 1 0 0 0 0 0 0 14 6 1 4 2 16 15 5 0 0 0 0 0 4 3 2 3 8 5 7 5 4 2 2 5 19 76 2 0 0 0 0 0 0 26 234 165 335 715 644 718 760 801 826 755 699 716 814 1000 1087 1212 1230 1149 1038 996 887 856 984 1030 1024 1028 1045 1001 935
0 0 0 0 0 0 0 1 6 22 0 0 0 4 0 0 0 0 0 0 0 7 8 9 6 4 4 7 10 4 0 0 0 0 0 1 3 1 4 4 5 6 5 5 4 13 4 98 95 33 0 0 0 0 0 88 80 205 112 353 725 699 632 631 714 769 779 762 735 691 640 610 670 949 1124 1071 942 968 1044 1021 1033 1002 1024 1048 994 976
0 0 0 0 0 0 0 1 7 2 0 0 0 0 0 0 0 0 0 0 0 0 1 5 7 6 6 6 12 6 0 0 0 0 0 8 2 0 3 6 2 2 3 7 8 13 1 79 88 0 0 0 0 0 0 0 86 34 387 618 754 742 687 721 748 765 860 874 834 743 633 594 647 781 917 976 1106 1132 1117 1073 1064 1032 1006 935 855 759
0 0 0 0 0 0 0 0 19 4 2 0 0 0 0 0 0 0 0 0 0 0 6 12 12 8 6 9 26 7 0 0 0 0 0 6 8 0 1 2 1 0 2 9 7 6 10 23 42 0 0 0 0 0 0 2 233 281 587 825 938 866 810 762 707 761 882 911 866 826 669 546 564 659 724 593 887 1045 1140 1151 1164 1202 1095 1005 872 852
0 0 0 0 0 0 0 0 0 0 0 0 0 0 0 0 0 0 0 0 0 4 4 13 17 17 16 25 11 22 8 14 6 0 0 4 4 0 1 0 0 2 0 3 10 7 21 40 34 34 54 79 210 216 119 172 382 368 439 914 1044 962 897 825 736 837 910 907 850 826 765 665 484 423 495 546 781 800 947 1052 1131 1138 1337 1045 871 927
0 0 0 0 0 0 0 0 0 0 0 0 0 0 0 0 0 0 0 0 1 6 6 14 21 22 17 53 10 30 31 41 31 8 1 2 4 0 1 0 2 0 5 0 14 3 6 12 1 0 128 225 343 408 335 363 366 341 364 843 1099 1011 856 888 870 785 743 600 636 626 704 780 644 209 158 493 654 677 912 1023 811 855 1133 1104 1137 1151
0 0 0 0 0 0 0 0 0 0 0 0 0 0 0 2 0 0 0 1 6 4 7 12 21 23 44 62 33 30 23 55 22 4 1 1 0 0 0 0 3 0 2 13 17 0 0 0 0 130 234 313 435 515 539 519 438 432 372 723 1044 1082 895 930 984 945 783 640 281 375 564 713 794 694 360 276 637 893 1013 975 789 740 789 937 1110 1165
0 0 0 0 0 0 0 0 0 0 0 0 0 0 0 2 0 2 2 11 6 6 7 12 18 16 22 74 77 83 72 55 5 1 2 0 0 0 0 0 0 3 0 6 22 25 1 0 0 0 239 328 407 456 460 489 509 353 52 509 746 921 742 864 856 757 590 55 69 0 507 634 652 556 503 613 862 983 944 864 889 941 862 904 946 973
0 0 0 0 0 0 0 3 2 0 0 0 1 2 1 1 2 7 4 6 7 3 4 8 15 15 13 73 80 84 73 55 19 2 5 0 0 0 0 0 0 1 1 0 0 46 14 1 0 118 176 302 391 408 468 425 385 341 197 345 411 479 563 832 548 606 392 49 18 72 7 601 806 923 808 805 922 882 797 719 756 812 766 723 870 939
2 0 0 0 0 0 0 1 1 0 2 4 2 6 2 5 4 8 7 6 5 2 1 7 11 14 13 61 81 74 72 56 30 2 4 0 0 1 2 0 0 4 0 3 3 89 61 1 0 72 250 273 372 427 466 475 422 416 436 502 630 589 242 350 525 310 126 39 63 67 308 414 982 1122 1108 958 871 873 859 937 818 700 671 759 856 857
1 0 0 0 4 0 1 0 4 2 2 3 2 5 1 4 8 8 7 7 2 2 1 2 5 5 4 37 72 68 68 67 30 6 13 0 0 3 3 1 0 0 0 0 0 3 60 4 2 52 308 289 267 380 464 465 538 523 552 580 766 885 578 226 3 12 157 4 115 91 522 965 826 1065 1167 1197 1044 1091 1071 1076 981 705 619 689 752 828
6 6 7 7 3 10 0 2 4 1 5 3 0 0 0 5 6 6 8 4 0 1 0 0 2 1 3 14 63 62 69 68 57 14 10 2 0 4 7 3 0 0 2 0 0 0 25 189 194 18 246 336 336 292 362 465 645 716 757 774 901 948 846 546 5 208 752 1027 1272 1367 1284 1306 1273 1177 1252 976 993 835 979 1109 1191 1225 1028 667 667 789
10 10 10 2 12 6 6 0 0 0 0 0 0 0 0 5 5 7 6 1 0 0 0 0 0 1 5 19 40 60 58 68 53 37 27 15 0 1 8 11 3 0 0 0 0 0 0 2 2 117 222 312 385 380 361 427 591 777 850 852 884 967 951 694 916 440 878 1421 1709 1905 1832 1726 1655 1608 1596 1622 1657 1122 984 885 937 1064 1236 1154 837 774
8 12 4 11 13 6 1 0 0 0 0 0 0 0 10 7 6 6 2 0 0 0 0 0 0 2 8 13 10 48 46 67 62 44 35 25 7 0 3 8 4 0 0 0 0 0 0 2 145 272 266 199 318 391 451 471 517 634 802 820 817 877 792 686 742 768 670 580 988 1664 1850 1824 1807 1837 1911 1957 1816 1594 1404 1249 1088 867 761 1004 1144 1067
8 8 22 16 16 7 1 0 0 0 0 0 0 3 7 3 3 2 0 0 0 0 0 0 2 0 9 13 9 24 56 66 65 54 42 30 19 0 0 3 6 1 0 0 0 0 0 1 10 208 301 308 275 307 420 507 514 536 624 757 864 788 859 842 734 695 859 774 692 521 823 1546 1514 1461 1619 1729 1590 1352 1297 1075 860 789 856 943 1068 928
5 18 20 17 12 2 0 0 0 0 0 0 0 0 0 2 0 0 0 0 0 0 0 0 0 2 7 11 5 4 37 55 56 51 46 34 29 13 0 4 2 6 3 0 0 0 0 0 1 1 175 134 302 339 284 385 510 533 502 590 708 746 793 837 800 740 733 836 799 750 684 475 464 904 1055 879 893 999 923 610 488 572 690 874 998 948
14 25 12 16 3 0 0 0 0 0 0 0 0 0 0 0 0 0 0 0 0 0 0 0 0 0 7 9 5 7 4 33 47 53 50 44 29 26 0 0 2 2 3 4 0 0 0 0 0 0 138 21 25 301 320 278 314 480 503 462 545 602 642 627 752 792 734 748 765 742 671 614 540 469 508 440 413 416 340 294 381 480 629 766 901 994
Wind_Speed
nan nan nan nan nan nan nan nan nan nan nan nan nan nan nan nan nan nan nan nan nan nan nan nan nan nan nan nan nan nan nan nan nan nan nan nan nan nan nan nan nan nan nan nan nan nan nan nan nan nan nan nan nan 57 62 65 59 55 53 52 53 54 55 55 55 57 50 40 35 34 35 39 41 40 39 42 42 37 34 31 30 29 28 25 24 23
nan nan nan nan nan nan nan nan nan nan nan nan nan nan nan nan nan nan nan nan nan nan nan nan nan nan nan nan nan nan nan nan nan nan nan nan nan nan nan nan nan nan nan nan nan nan nan nan nan nan nan nan nan 56 62 65 60 56 54 52 55 60 58 55 54 56 46 38 37 34 31 39 45 47 46 46 45 40 37 34 32 30 28 26 25 24
nan nan nan nan nan nan nan nan nan nan nan nan nan nan nan nan nan nan nan nan nan nan nan nan nan nan nan nan nan nan nan nan nan nan nan nan nan nan nan nan nan nan nan nan nan nan nan nan nan nan nan nan nan 52 58 64 63 58 55 54 59 60 58 52 52 55 44 35 37 37 37 42 49 49 53 57 54 46 40 37 34 32 30 27 26 25
nan nan nan nan nan nan nan nan nan nan nan nan nan nan nan nan nan nan nan nan nan nan nan nan nan nan nan nan nan nan nan nan nan nan nan nan nan nan nan nan nan nan nan nan nan nan nan nan nan nan nan nan nan 49 55 61 62 58 55 57 59 59 56 53 51 49 44 37 38 45 47 45 45 42 46 51 54 49 42 37 35 31 29 28 26 26
nan nan nan nan nan nan nan nan nan nan nan nan nan nan nan nan nan nan nan nan nan nan nan nan nan nan nan nan nan nan nan nan nan nan nan nan nan nan nan nan nan nan nan nan nan nan nan nan nan nan nan nan 41 44 48 53 57 57 54 55 57 57 54 54 51 47 47 49 52 55 57 52 53 52 48 48 51 49 44 39 34 27 28 28 27 28
nan nan nan nan nan nan nan nan nan nan nan nan nan nan nan nan nan nan nan nan nan nan nan nan nan nan nan nan nan nan nan nan nan nan nan nan nan nan nan nan nan nan nan nan nan nan nan nan nan nan nan 39 40 40 42 45 50 53 53 54 56 57 55 53 51 52 52 50 49 51 51 47 43 45 44 41 44 49 43 37 32 27 27 29 28 29
nan nan nan nan nan nan nan nan nan nan nan nan nan nan nan nan nan nan nan nan nan nan nan nan nan nan nan nan nan nan nan nan nan nan nan nan nan nan nan nan nan nan nan nan nan nan nan nan nan nan 36 38 39 36 40 43 46 48 51 53 54 54 52 51 53 56 54 52 48 45 45 44 40 42 40 37 41 44 41 39 34 30 29 30 31 33
nan nan nan nan nan nan nan nan nan nan nan nan nan nan nan nan nan nan nan nan nan nan nan nan nan nan nan nan nan nan nan nan nan nan nan nan nan nan nan nan nan nan nan nan nan nan nan nan nan nan 31 37 37 38 41 42 44 45 47 50 51 54 53 51 55 56 53 51 48 47 46 44 42 43 42 38 36 39 43 43 39 35 35 34 34 33
nan nan nan nan nan nan nan nan nan nan nan nan nan nan nan nan nan nan nan nan nan nan nan nan nan nan nan nan nan nan nan nan nan nan nan nan nan nan nan nan nan nan nan nan nan nan nan nan nan nan nan 34 40 43 41 40 41 41 42 45 49 52 52 52 54 56 53 51 49 47 47 44 43 43 44 41 38 36 38 41 41 37 38 39 36 34
nan nan nan nan nan nan nan nan nan nan nan nan nan nan nan nan nan nan nan nan nan nan nan nan nan nan nan nan nan nan nan nan nan nan nan nan nan nan nan nan nan nan nan nan nan nan nan nan nan nan nan 36 37 40 41 41 42 41 41 42 46 49 51 51 53 55 53 51 52 49 45 43 44 44 45 44 41 37 34 34 38 39 41 40 37 34
nan nan nan nan nan nan nan nan nan nan nan nan nan nan nan nan nan nan nan nan nan nan nan nan nan nan nan nan nan nan nan nan nan nan nan nan nan nan nan nan nan nan nan nan nan nan nan nan nan nan nan nan 43 42 43 44 43 42 39 39 41 43 48 50 51 54 53 52 52 49 45 43 43 44 46 44 42 41 36 31 33 41 45 41 36 34
nan nan nan nan nan nan nan nan nan nan nan nan nan nan nan nan nan nan nan nan nan nan nan nan nan nan nan nan nan nan nan nan nan nan nan nan nan nan nan nan nan nan nan nan nan nan nan nan nan nan nan nan nan 46 42 43 42 41 37 37 38 40 43 46 49 52 52 52 51 49 45 43 42 43 45 40 38 38 36 32 30 38 46 44 40 38
nan nan nan nan nan nan nan nan nan nan nan nan nan nan nan nan nan nan nan nan nan nan nan nan nan nan nan nan nan nan nan nan nan nan nan nan nan nan nan nan nan nan nan nan nan nan nan nan nan nan nan nan nan nan 47 42 41 39 37 35 37 35 37 41 45 48 50 51 51 48 45 43 43 42 42 40 38 38 37 35 29 29 38 44 42 39
nan nan nan nan nan nan nan nan nan nan nan nan nan nan nan nan nan nan nan nan nan nan nan nan nan nan nan nan nan nan nan nan nan nan nan nan nan nan nan nan nan nan nan nan nan nan nan nan nan nan nan nan nan nan nan 50 40 38 36 34 33 33 34 37 40 45 48 48 49 48 46 44 46 54 57 56 53 47 41 40 35 30 33 38 38 36
nan nan nan nan nan nan nan nan nan nan nan nan nan nan nan nan nan nan nan nan nan nan nan nan nan nan nan nan nan nan nan nan nan nan nan nan nan nan nan nan nan nan nan nan nan nan nan nan nan nan nan nan nan nan nan nan 47 38 37 34 31 33 33 34 36 43 45 47 48 49 47 49 56 51 46 42 41 44 46 47 42 39 36 35 36 36
nan nan nan nan nan nan nan nan nan nan nan nan nan nan nan nan nan nan nan nan nan nan nan nan nan nan nan nan nan nan nan nan nan nan nan nan nan nan nan nan nan nan nan nan nan nan nan nan nan nan nan nan nan nan nan nan nan 43 36 34 29 29 31 32 34 38 43 46 49 50 50 52 54 50 45 40 37 34 35 38 40 41 39 37 38 39
nan nan nan nan nan nan nan nan nan nan nan nan nan nan nan nan nan nan nan nan nan nan nan nan nan nan nan nan nan nan nan nan nan nan nan nan nan nan nan nan nan nan nan nan nan nan nan nan nan nan nan nan nan nan nan nan nan 46 39 34 30 28 30 31 31 34 40 45 49 50 52 53 51 48 41 36 33 33 35 34 34 36 36 36 36 40
nan nan nan nan nan nan nan nan nan nan nan nan nan nan nan nan nan nan nan nan nan nan nan nan nan nan nan nan nan nan nan nan nan nan nan nan nan nan nan nan nan nan nan nan nan nan nan nan nan nan nan nan nan nan nan nan nan nan 45 37 32 30 28 28 30 33 37 43 48 51 52 51 48 46 40 35 34 37 38 36 36 36 35 32 32 37
nan nan nan nan nan nan nan nan nan nan nan nan nan nan nan nan nan nan nan nan nan nan nan nan nan nan nan nan nan nan nan nan nan nan nan nan nan nan nan nan nan nan nan nan nan nan nan nan nan nan nan nan nan nan nan nan nan nan 48 43 35 30 27 26 29 31 35 40 48 52 51 49 48 47 42 39 37 40 40 37 34 34 34 35 34 34
nan nan nan nan nan nan nan nan nan nan nan nan nan nan nan nan nan nan nan nan nan nan nan nan nan nan nan nan nan nan nan nan nan nan nan nan nan nan nan nan nan nan nan nan nan nan nan nan nan nan nan nan nan nan nan nan nan nan nan 45 40 33 30 30 30 31 33 38 45 50 51 50 49 46 42 40 40 40 41 39 35 33 32 33 36 34
nan nan nan nan nan nan nan nan nan nan nan nan nan nan nan nan nan nan nan nan nan nan nan nan nan nan nan nan nan nan nan nan nan nan nan nan nan nan nan nan nan nan nan nan nan nan nan nan nan nan nan nan nan nan nan nan nan nan nan 45 42 36 35 34 32 30 31 37 42 47 50 49 49 46 44 43 42 41 41 41 39 35 33 37 37 35
nan nan nan nan nan nan nan nan nan nan nan nan nan nan nan nan nan nan nan nan nan nan nan nan nan nan nan nan nan nan nan nan nan nan nan nan nan nan nan nan nan nan nan nan nan nan nan nan nan nan nan nan nan nan nan nan nan nan nan 42 42 40 39 36 34 32 31 34 39 43 47 48 48 47 48 46 45 43 41 42 41 39 38 37 37 34
nan nan nan nan nan nan nan nan nan nan nan nan nan nan nan nan nan nan nan nan nan nan nan nan nan nan nan nan nan nan nan nan nan nan nan nan nan nan nan nan nan nan nan nan nan nan nan nan nan nan nan nan nan nan nan nan nan nan nan 39 42 42 40 38 35 33 32 33 37 39 44 48 48 49 49 47 46 43 41 44 44 43 40 38 37 34
nan nan nan nan nan nan nan nan nan nan nan nan nan nan nan nan nan nan nan nan nan nan nan nan nan nan nan nan nan nan nan nan nan nan nan nan nan nan nan nan nan nan nan nan nan nan nan nan nan nan nan nan nan nan nan nan nan nan nan 40 46 43 38 38 37 37 35 34 34 36 43 47 48 48 49 49 48 45 45 45 44 43 40 37 37 35
nan nan nan nan nan nan nan nan nan nan nan nan nan nan nan nan nan nan nan nan nan nan nan nan nan nan nan nan nan nan nan nan nan nan nan nan nan nan nan nan nan nan nan nan nan nan nan nan nan nan nan nan nan nan nan nan nan nan nan 39 41 47 44 40 41 40 38 35 32 36 41 44 47 49 49 49 50 47 46 46 44 43 39 38 36 37
nan nan nan nan nan nan nan nan nan nan nan nan nan nan nan nan nan nan nan nan nan nan nan nan nan nan nan nan nan nan nan nan nan nan nan nan nan nan nan nan nan nan nan nan nan nan nan nan nan nan nan nan nan nan nan nan nan nan nan 39 35 36 41 45 45 43 40 38 35 36 38 42 47 49 49 50 50 48 47 46 45 43 41 39 36 38
nan nan nan nan nan nan nan nan nan nan nan nan nan nan nan nan nan nan nan nan nan nan nan nan nan nan nan nan nan nan nan nan nan nan nan nan nan nan nan nan nan nan nan nan nan nan nan nan nan nan nan nan nan nan nan nan nan nan nan nan 36 32 34 42 47 47 45 44 40 37 38 42 45 49 51 52 51 50 49 46 45 47 44 42 40 39
nan nan nan nan nan nan nan nan nan nan nan nan nan nan nan nan nan nan nan nan nan nan nan nan nan nan nan nan nan nan nan nan nan nan nan nan nan nan nan nan nan nan nan nan nan nan nan nan nan nan nan nan nan nan nan nan nan nan nan 41 39 37 37 40 43 48 49 47 44 40 39 41 45 51 53 53 52 50 49 47 48 48 44 46 44 41
nan nan nan nan nan nan nan nan nan nan nan nan nan nan nan nan nan nan nan nan nan nan nan nan nan nan nan nan nan nan nan nan nan nan nan nan nan nan nan nan nan nan nan nan nan nan nan nan nan nan nan nan nan nan nan nan nan nan nan 42 41 39 38 40 42 48 52 51 46 42 42 44 48 53 56 54 52 51 50 49 50 48 44 43 43 44
nan nan nan nan nan nan nan nan nan nan nan nan nan nan nan nan nan nan nan nan nan nan nan nan nan nan nan nan nan nan nan nan nan nan nan nan nan nan nan nan nan nan nan nan nan nan nan nan nan nan nan nan nan nan nan nan nan nan 40 39 42 41 41 40 38 42 49 51 49 47 46 45 48 52 56 55 53 52 51 50 50 50 45 40 39 42
nan nan nan nan nan nan nan nan nan nan nan nan nan nan nan nan nan nan nan nan nan nan nan nan nan nan nan nan nan nan nan nan nan nan nan nan nan nan nan nan nan nan nan nan nan nan nan nan nan nan nan nan nan nan nan nan nan nan 37 38 39 40 43 43 42 41 43 47 50 50 48 47 48 52 54 54 53 53 52 51 51 50 47 45 46 47
nan nan nan nan nan nan nan nan nan nan nan nan nan nan nan nan nan nan nan nan nan nan nan nan nan nan nan nan nan nan nan nan nan nan nan nan nan nan nan nan nan nan nan nan nan nan nan nan nan nan nan nan nan nan nan nan nan nan 34 36 39 40 41 41 41 41 42 47 52 52 50 49 50 52 54 54 52 52 52 52 51 49 51 50 42 42
nan nan nan nan nan nan nan nan nan nan nan nan nan nan nan nan nan nan nan nan nan nan nan nan nan nan nan nan nan nan nan nan nan nan nan nan nan nan nan nan nan nan nan nan nan nan nan nan nan nan nan nan nan nan nan nan nan nan 30 33 36 39 38 38 38 39 42 50 54 52 51 50 49 51 54 53 52 53 54 53 51 50 50 49 42 41
nan nan nan nan nan nan nan nan nan nan nan nan nan nan nan nan nan nan nan nan nan nan nan nan nan nan nan nan nan nan nan nan nan nan nan nan nan nan nan nan nan nan nan nan nan nan nan nan nan nan nan nan nan nan nan nan nan 29 28 30 34 35 37 39 38 37 38 43 48 51 53 53 51 51 51 49 49 50 51 51 50 50 50 50 47 44
nan nan nan nan nan nan nan nan nan nan nan nan nan nan nan nan nan nan nan nan nan nan nan nan nan nan nan nan nan nan nan nan nan nan nan nan nan nan nan nan nan nan nan nan nan nan nan nan nan nan nan nan nan nan nan nan nan 29 29 30 31 34 35 35 36 37 39 41 45 49 52 53 55 56 54 50 50 51 51 51 52 51 51 49 46 42
nan nan nan nan nan nan nan nan nan nan nan nan nan nan nan nan nan nan nan nan nan nan nan nan nan nan nan nan nan nan nan nan nan nan nan nan nan nan nan nan nan nan nan nan nan nan nan nan nan nan nan nan nan nan nan nan nan 27 27 27 29 31 33 35 36 37 41 42 45 47 49 52 53 54 54 52 51 53 54 55 54 52 52 50 47 45
nan nan nan nan nan nan nan nan nan nan nan nan nan nan nan nan nan nan nan nan nan nan nan nan nan nan nan nan nan nan nan nan nan nan nan nan nan nan nan nan nan nan nan nan nan nan nan nan nan nan nan nan nan nan nan nan nan nan 28 29 30 32 35 36 33 32 35 37 41 45 50 54 56 59 57 52 51 53 55 54 53 52 53 51 47 48
nan nan nan nan nan nan nan nan nan nan nan nan nan nan nan nan nan nan nan nan nan nan nan nan nan nan nan nan nan nan nan nan nan nan nan nan nan nan nan nan nan nan nan nan nan nan nan nan nan nan nan nan nan nan nan nan 25 28 27 26 26 25 27 28 27 27 29 31 35 42 49 50 52 54 55 56 58 61 64 64 60 53 51 48 50 49
nan nan nan nan nan nan nan nan nan nan nan nan nan nan nan nan nan nan nan nan nan nan nan nan nan nan nan nan nan nan nan nan nan nan nan nan nan nan nan nan nan nan nan nan nan nan nan nan nan nan nan nan 31 30 24 22 23 27 28 24 20 18 18 21 26 28 27 27 31 38 45 49 50 49 48 48 49 51 55 56 54 53 58 58 54 48
nan nan nan nan nan nan nan nan nan nan nan nan nan nan nan nan nan nan nan nan nan nan nan nan nan nan nan nan nan nan nan nan nan nan nan nan nan nan nan nan nan nan nan nan nan nan nan nan nan nan 28 31 34 31 24 19 20 22 23 20 18 17 17 22 24 26 30 27 29 36 41 43 45 48 49 49 50 51 54 57 54 50 51 49 49 47
nan nan nan nan nan nan nan nan nan nan nan nan nan nan nan nan nan nan nan nan nan nan nan nan nan nan nan nan nan nan nan nan nan nan nan nan nan nan nan nan nan nan nan nan nan nan nan nan nan 18 27 31 33 31 30 22 17 19 19 19 18 15 19 22 22 19 20 23 23 31 40 42 41 42 45 48 50 48 49 51 50 51 51 50 48 45
nan nan nan nan nan nan nan nan nan nan nan nan nan nan nan nan nan nan nan nan nan nan nan nan nan nan nan nan nan nan nan nan nan nan nan nan nan nan nan nan nan nan nan nan nan nan nan nan nan nan 34 35 32 30 32 31 30 30 nan 27 28 30 29 24 16 19 23 nan nan nan 36 42 44 43 43 46 49 48 45 45 47 49 49 49 46 41
nan nan nan nan nan nan nan nan nan nan nan nan nan nan nan nan nan nan nan nan nan nan nan nan nan nan nan nan nan nan nan nan nan nan nan nan nan nan nan nan nan nan nan nan nan nan nan nan nan 25 31 30 29 30 32 35 36 32 30 32 31 29 30 26 25 23 17 nan nan nan nan 43 45 44 43 42 42 43 44 47 47 48 48 48 46 42
nan nan nan nan nan nan nan nan nan nan nan nan nan nan nan nan nan nan nan nan nan nan nan nan nan nan nan nan nan nan nan nan nan nan nan nan nan nan nan nan nan nan nan nan nan nan nan nan nan nan 29 27 28 30 32 35 34 34 35 38 36 34 29 25 28 26 17 nan nan nan 30 41 45 43 42 40 40 41 43 44 45 46 46 45 43 41
nan nan nan nan nan nan nan nan nan nan nan nan nan nan nan nan nan nan nan nan nan nan nan nan nan nan nan nan nan nan nan nan nan nan nan nan nan nan nan nan nan nan nan nan nan nan nan nan nan nan 25 24 29 30 31 33 36 39 39 35 36 39 33 25 nan nan 16 nan 15 nan 27 40 43 42 39 39 42 39 38 40 44 45 45 44 43 41
nan nan nan nan nan nan nan nan nan nan nan nan nan nan nan nan nan nan nan nan nan nan nan nan nan nan nan nan nan nan nan nan nan nan nan nan nan nan nan nan nan nan nan nan nan nan nan 16 22 nan 28 27 29 30 30 33 37 41 37 33 34 39 36 28 nan 27 22 22 24 25 26 31 38 43 40 33 35 42 46 45 42 43 43 41 39 40
nan nan nan nan nan nan nan nan nan nan nan nan nan nan nan nan nan nan nan nan nan nan nan nan nan nan nan nan nan nan nan nan nan nan nan nan nan nan nan nan nan nan nan nan nan nan nan nan nan 34 30 29 29 27 29 33 34 36 38 36 33 38 38 33 27 23 27 30 30 30 32 32 35 41 42 36 33 32 33 38 44 47 45 42 39 39
nan nan nan nan nan nan nan nan nan nan nan nan nan nan nan nan nan nan nan nan nan nan nan nan nan nan nan nan nan nan nan nan nan nan nan nan nan nan nan nan nan nan nan nan nan nan nan nan 25 29 28 28 28 26 28 32 35 38 41 39 36 36 38 36 29 27 29 29 28 31 35 38 42 44 41 37 34 33 33 34 34 35 39 40 37 35
nan nan nan nan nan nan nan nan nan nan nan nan nan nan nan nan nan nan nan nan nan nan nan nan nan nan nan nan nan nan nan nan nan nan nan nan nan nan nan nan nan nan nan nan nan nan nan nan nan 24 27 27 25 24 28 32 34 37 41 40 37 36 36 36 34 32 32 31 32 32 32 33 38 43 46 45 44 41 41 42 46 44 41 38 40 38
nan nan nan nan nan nan nan nan nan nan nan nan nan nan nan nan nan nan nan nan nan nan nan nan nan nan nan nan nan nan nan nan nan nan nan nan nan nan nan nan nan nan nan nan nan nan nan nan nan nan 24 25 26 25 27 30 33 34 36 38 37 36 34 34 34 35 34 34 35 35 34 33 30 33 39 42 42 43 41 39 39 41 41 42 51 54
nan nan nan nan nan nan nan nan nan nan nan nan nan nan nan nan nan nan nan nan nan nan nan nan nan nan nan nan nan nan nan nan nan nan nan nan nan nan nan nan nan nan nan nan nan nan nan nan nan nan 25 nan nan 27 28 29 31 32 34 37 38 38 35 33 32 33 34 35 36 38 36 34 34 32 31 31 34 37 39 39 40 39 36 35 36 41
Wind_Direction
nan nan nan nan nan nan nan nan nan nan nan nan nan nan nan nan nan nan nan nan nan nan nan nan nan nan nan nan nan nan nan nan nan nan nan nan nan nan nan nan nan nan nan nan nan nan nan nan nan nan nan nan nan 248 250 253 253 251 249 248 248 244 240 236 235 235 237 237 243 238 233 231 231 227 229 237 242 235 223 218 217 218 217 215 214 221
nan nan nan nan nan nan nan nan nan nan nan nan nan nan nan nan nan nan nan nan nan nan nan nan nan nan nan nan nan nan nan nan nan nan nan nan nan nan nan nan nan nan nan nan nan nan nan nan nan nan nan nan nan 246 249 250 252 251 249 249 247 243 240 240 239 238 240 234 236 243 240 233 230 228 226 228 233 233 227 221 216 219 218 213 216 221
nan nan nan nan nan nan nan nan nan nan nan nan nan nan nan nan nan nan nan nan nan nan nan nan nan nan nan nan nan nan nan nan nan nan nan nan nan nan nan nan nan nan nan nan nan nan nan nan nan nan nan nan nan 247 251 250 249 248 246 244 244 244 245 243 241 242 246 241 236 237 237 238 231 227 224 217 222 226 227 220 213 215 216 210 212 222
nan nan nan nan nan nan nan nan nan nan nan nan nan nan nan nan nan nan nan nan nan nan nan nan nan nan nan nan nan nan nan nan nan nan nan nan nan nan nan nan nan nan nan nan nan nan nan nan nan nan nan nan nan 241 243 248 250 246 243 242 243 246 246 245 244 244 245 246 242 233 229 235 235 235 235 229 223 223 221 220 212 212 219 215 211 221
nan nan nan nan nan nan nan nan nan nan nan nan nan nan nan nan nan nan nan nan nan nan nan nan nan nan nan nan nan nan nan nan nan nan nan nan nan nan nan nan nan nan nan nan nan nan nan nan nan nan nan nan 245 244 245 246 246 244 246 243 244 246 247 245 247 246 242 237 235 233 231 230 229 226 234 235 227 222 220 218 213 211 225 225 214 219
nan nan nan nan nan nan nan nan nan nan nan nan nan nan nan nan nan nan nan nan nan nan nan nan nan nan nan nan nan nan nan nan nan nan nan nan nan nan nan nan nan nan nan nan nan nan nan nan nan nan nan 244 247 246 245 247 247 245 244 243 241 241 242 244 246 246 242 240 240 241 239 238 238 236 237 238 234 226 222 219 213 213 227 232 218 216
nan nan nan nan nan nan nan nan nan nan nan nan nan nan nan nan nan nan nan nan nan nan nan nan nan nan nan nan nan nan nan nan nan nan nan nan nan nan nan nan nan nan nan nan nan nan nan nan nan nan 235 242 248 247 246 244 243 242 243 242 242 241 239 239 244 245 242 240 238 242 244 242 243 242 237 242 241 236 230 224 219 215 223 232 222 213
nan nan nan nan nan nan nan nan nan nan nan nan nan nan nan nan nan nan nan nan nan nan nan nan nan nan nan nan nan nan nan nan nan nan nan nan nan nan nan nan nan nan nan nan nan nan nan nan nan nan 232 237 244 246 245 246 244 243 240 239 239 236 236 235 238 244 242 242 240 238 239 238 240 242 240 237 238 235 235 229 219 215 217 223 226 220
nan nan nan nan nan nan nan nan nan nan nan nan nan nan nan nan nan nan nan nan nan nan nan nan nan nan nan nan nan nan nan nan nan nan nan nan nan nan nan nan nan nan nan nan nan nan nan nan nan nan nan 226 236 241 243 245 246 245 241 239 237 237 235 232 235 241 240 239 240 238 237 237 236 241 240 237 235 237 235 231 224 220 221 221 222 223
nan nan nan nan nan nan nan nan nan nan nan nan nan nan nan nan nan nan nan nan nan nan nan nan nan nan nan nan nan nan nan nan nan nan nan nan nan nan nan nan nan nan nan nan nan nan nan nan nan nan nan 216 229 237 242 242 243 243 239 236 236 235 234 232 233 237 239 237 237 237 236 237 237 239 239 237 237 237 239 239 233 225 223 226 223 216
nan nan nan nan nan nan nan nan nan nan nan nan nan nan nan nan nan nan nan nan nan nan nan nan nan nan nan nan nan nan nan nan nan nan nan nan nan nan nan nan nan nan nan nan nan nan nan nan nan nan nan nan 207 224 237 240 242 242 239 236 235 235 232 232 232 235 237 235 236 235 236 238 237 239 241 239 235 238 236 239 241 231 226 226 220 213
nan nan nan nan nan nan nan nan nan nan nan nan nan nan nan nan nan nan nan nan nan nan nan nan nan nan nan nan nan nan nan nan nan nan nan nan nan nan nan nan nan nan nan nan nan nan nan nan nan nan nan nan nan 208 223 239 242 244 242 237 235 232 234 232 232 232 234 234 234 236 235 236 238 240 242 243 241 242 242 243 247 237 228 223 218 215
nan nan nan nan nan nan nan nan nan nan nan nan nan nan nan nan nan nan nan nan nan nan nan nan nan nan nan nan nan nan nan nan nan nan nan nan nan nan nan nan nan nan nan nan nan nan nan nan nan nan nan nan nan nan 208 222 241 241 243 243 239 236 234 235 232 231 232 232 232 234 235 232 235 239 241 240 239 241 239 240 246 239 226 222 221 220
nan nan nan nan nan nan nan nan nan nan nan nan nan nan nan nan nan nan nan nan nan nan nan nan nan nan nan nan nan nan nan nan nan nan nan nan nan nan nan nan nan nan nan nan nan nan nan nan nan nan nan nan nan nan nan 208 218 240 240 241 240 238 236 234 233 231 230 231 231 231 232 231 230 231 227 223 222 223 225 229 233 235 230 225 226 225
nan nan nan nan nan nan nan nan nan nan nan nan nan nan nan nan nan nan nan nan nan nan nan nan nan nan nan nan nan nan nan nan nan nan nan nan nan nan nan nan nan nan nan nan nan nan nan nan nan nan nan nan nan nan nan nan 210 219 238 239 239 236 234 235 234 229 228 228 229 228 229 230 228 233 234 236 230 221 217 216 221 229 229 226 224 223
nan nan nan nan nan nan nan nan nan nan nan nan nan nan nan nan nan nan nan nan nan nan nan nan nan nan nan nan nan nan nan nan nan nan nan nan nan nan nan nan nan nan nan nan nan nan nan nan nan nan nan nan nan nan nan nan nan 211 224 237 238 238 235 233 234 231 227 224 225 226 228 229 229 231 231 229 228 232 235 227 220 221 227 225 220 216
nan nan nan nan nan nan nan nan nan nan nan nan nan nan nan nan nan nan nan nan nan nan nan nan nan nan nan nan nan nan nan nan nan nan nan nan nan nan nan nan nan nan nan nan nan nan nan nan nan nan nan nan nan nan nan nan nan 214 212 227 232 232 231 230 234 234 226 222 223 224 227 228 229 231 232 228 227 227 226 228 229 225 225 227 222 215
nan nan nan nan nan nan nan nan nan nan nan nan nan nan nan nan nan nan nan nan nan nan nan nan nan nan nan nan nan nan nan nan nan nan nan nan nan nan nan nan nan nan nan nan nan nan nan nan nan nan nan nan nan nan nan nan nan nan 214 216 230 229 230 224 228 232 228 223 221 223 225 227 228 229 228 225 223 224 225 225 224 225 227 230 230 221
nan nan nan nan nan nan nan nan nan nan nan nan nan nan nan nan nan nan nan nan nan nan nan nan nan nan nan nan nan nan nan nan nan nan nan nan nan nan nan nan nan nan nan nan nan nan nan nan nan nan nan nan nan nan nan nan nan nan 218 215 221 231 229 227 223 228 227 224 221 221 224 225 225 225 223 221 221 224 226 226 225 225 226 227 233 231
nan nan nan nan nan nan nan nan nan nan nan nan nan nan nan nan nan nan nan nan nan nan nan nan nan nan nan nan nan nan nan nan nan nan nan nan nan nan nan nan nan nan nan nan nan nan nan nan nan nan nan nan nan nan nan nan nan nan nan 221 217 223 229 227 224 224 227 225 221 221 222 222 223 224 223 221 222 223 225 226 224 224 224 225 230 232
nan nan nan nan nan nan nan nan nan nan nan nan nan nan nan nan nan nan nan nan nan nan nan nan nan nan nan nan nan nan nan nan nan nan nan nan nan nan nan nan nan nan nan nan nan nan nan nan nan nan nan nan nan nan nan nan nan nan nan 227 225 221 227 227 222 223 225 226 222 221 223 223 221 221 221 221 222 222 223 224 224 224 224 226 228 232
nan nan nan nan nan nan nan nan nan nan nan nan nan nan nan nan nan nan nan nan nan nan nan nan nan nan nan nan nan nan nan nan nan nan nan nan nan nan nan nan nan nan nan nan nan nan nan nan nan nan nan nan nan nan nan nan nan nan nan 230 232 226 226 228 223 219 222 225 225 222 222 223 221 220 221 222 222 221 220 222 224 225 225 227 228 230
nan nan nan nan nan nan nan nan nan nan nan nan nan nan nan nan nan nan nan nan nan nan nan nan nan nan nan nan nan nan nan nan nan nan nan nan nan nan nan nan nan nan nan nan nan nan nan nan nan nan nan nan nan nan nan nan nan nan nan 227 233 232 226 228 226 220 220 226 226 222 222 223 221 219 220 222 222 222 221 221 222 224 226 227 226 228
nan nan nan nan nan nan nan nan nan nan nan nan nan nan nan nan nan nan nan nan nan nan nan nan nan nan nan nan nan nan nan nan nan nan nan nan nan nan nan nan nan nan nan nan nan nan nan nan nan nan nan nan nan nan nan nan nan nan nan 226 229 229 229 227 225 220 219 222 225 224 222 222 221 220 221 222 222 222 222 221 221 224 226 227 227 229
nan nan nan nan nan nan nan nan nan nan nan nan nan nan nan nan nan nan nan nan nan nan nan nan nan nan nan nan nan nan nan nan nan nan nan nan nan nan nan nan nan nan nan nan nan nan nan nan nan nan nan nan nan nan nan nan nan nan nan 225 231 225 220 225 224 223 219 219 223 223 221 222 222 220 220 221 222 223 223 222 221 222 225 227 227 228
nan nan nan nan nan nan nan nan nan nan nan nan nan nan nan nan nan nan nan nan nan nan nan nan nan nan nan nan nan nan nan nan nan nan nan nan nan nan nan nan nan nan nan nan nan nan nan nan nan nan nan nan nan nan nan nan nan nan nan 219 226 232 225 218 221 223 221 217 219 223 222 221 221 220 220 221 221 223 223 221 221 221 222 226 228 228
nan nan nan nan nan nan nan nan nan nan nan nan nan nan nan nan nan nan nan nan nan nan nan nan nan nan nan nan nan nan nan nan nan nan nan nan nan nan nan nan nan nan nan nan nan nan nan nan nan nan nan nan nan nan nan nan nan nan nan nan 221 230 233 225 217 219 220 217 216 218 219 220 220 219 218 220 220 220 221 221 220 218 217 222 227 229
nan nan nan nan nan nan nan nan nan nan nan nan nan nan nan nan nan nan nan nan nan nan nan nan nan nan nan nan nan nan nan nan nan nan nan nan nan nan nan nan nan nan nan nan nan nan nan nan nan nan nan nan nan nan nan nan nan nan nan 214 225 223 231 233 227 220 220 218 214 214 216 218 218 217 218 218 219 219 219 219 221 222 217 210 213 226
nan nan nan nan nan nan nan nan nan nan nan nan nan nan nan nan nan nan nan nan nan nan nan nan nan nan nan nan nan nan nan nan nan nan nan nan nan nan nan nan nan nan nan nan nan nan nan nan nan nan nan nan nan nan nan nan nan nan nan 213 220 228 229 233 231 226 223 220 215 212 214 217 217 216 216 217 216 217 218 219 221 223 219 217 210 213
nan nan nan nan nan nan nan nan nan nan nan nan nan nan nan nan nan nan nan nan nan nan nan nan nan nan nan nan nan nan nan nan nan nan nan nan nan nan nan nan nan nan nan nan nan nan nan nan nan nan nan nan nan nan nan nan nan nan 213 217 215 218 224 230 233 232 227 224 219 214 213 217 218 218 218 217 215 214 216 218 221 224 223 218 214 213
nan nan nan nan nan nan nan nan nan nan nan nan nan nan nan nan nan nan nan nan nan nan nan nan nan nan nan nan nan nan nan nan nan nan nan nan nan nan nan nan nan nan nan nan nan nan nan nan nan nan nan nan nan nan nan nan nan nan 214 214 218 217 220 226 228 229 229 227 223 219 215 216 218 218 218 218 215 212 213 216 219 222 224 221 217 211
nan nan nan nan nan nan nan nan nan nan nan nan nan nan nan nan nan nan nan nan nan nan nan nan nan nan nan nan nan nan nan nan nan nan nan nan nan nan nan nan nan nan nan nan nan nan nan nan nan nan nan nan nan nan nan nan nan nan 213 214 215 217 218 225 228 229 224 221 221 219 216 214 217 217 218 217 215 212 212 214 217 220 223 226 221 219
nan nan nan nan nan nan nan nan nan nan nan nan nan nan nan nan nan nan nan nan nan nan nan nan nan nan nan nan nan nan nan nan nan nan nan nan nan nan nan nan nan nan nan nan nan nan nan nan nan nan nan nan nan nan nan nan nan nan 210 210 215 220 221 223 227 229 225 218 216 216 213 212 214 217 217 216 214 213 213 214 215 218 223 227 222 222
nan nan nan nan nan nan nan nan nan nan nan nan nan nan nan nan nan nan nan nan nan nan nan nan nan nan nan nan nan nan nan nan nan nan nan nan nan nan nan nan nan nan nan nan nan nan nan nan nan nan nan nan nan nan nan nan nan 206 208 206 215 223 223 226 225 229 226 222 219 215 210 208 209 213 216 215 214 214 215 216 217 218 222 225 223 222
nan nan nan nan nan nan nan nan nan nan nan nan nan nan nan nan nan nan nan nan nan nan nan nan nan nan nan nan nan nan nan nan nan nan nan nan nan nan nan nan nan nan nan nan nan nan nan nan nan nan nan nan nan nan nan nan nan 199 205 212 217 219 225 226 229 225 223 221 218 217 213 208 206 208 211 211 209 209 212 216 218 220 222 224 226 225
nan nan nan nan nan nan nan nan nan nan nan nan nan nan nan nan nan nan nan nan nan nan nan nan nan nan nan nan nan nan nan nan nan nan nan nan nan nan nan nan nan nan nan nan nan nan nan nan nan nan nan nan nan nan nan nan nan 201 198 216 222 222 223 225 224 221 220 219 217 216 214 211 209 209 209 209 208 209 211 214 218 219 221 223 224 223
nan nan nan nan nan nan nan nan nan nan nan nan nan nan nan nan nan nan nan nan nan nan nan nan nan nan nan nan nan nan nan nan nan nan nan nan nan nan nan nan nan nan nan nan nan nan nan nan nan nan nan nan nan nan nan nan nan nan 203 206 215 222 224 226 221 217 217 218 218 217 214 213 213 211 206 205 209 211 211 214 217 219 221 224 225 225
nan nan nan nan nan nan nan nan nan nan nan nan nan nan nan nan nan nan nan nan nan nan nan nan nan nan nan nan nan nan nan nan nan nan nan nan nan nan nan nan nan nan nan nan nan nan nan nan nan nan nan nan nan nan nan nan 197 206 209 206 215 226 228 228 223 216 216 217 218 213 208 209 214 215 212 206 206 208 209 211 212 217 222 226 227 228
nan nan nan nan nan nan nan nan nan nan nan nan nan nan nan nan nan nan nan nan nan nan nan nan nan nan nan nan nan nan nan nan nan nan nan nan nan nan nan nan nan nan nan nan nan nan nan nan nan nan nan nan 192 183 190 193 197 204 209 212 218 225 224 218 218 218 215 214 216 211 204 200 204 210 211 210 209 210 211 214 216 214 217 217 219 223
nan nan nan nan nan nan nan nan nan nan nan nan nan nan nan nan nan nan nan nan nan nan nan nan nan nan nan nan nan nan nan nan nan nan nan nan nan nan nan nan nan nan nan nan nan nan nan nan nan nan 194 192 185 180 187 188 191 198 204 210 214 218 212 208 209 210 212 206 202 205 204 202 204 205 207 207 209 211 210 210 213 214 218 225 225 222
nan nan nan nan nan nan nan nan nan nan nan nan nan nan nan nan nan nan nan nan nan nan nan nan nan nan nan nan nan nan nan nan nan nan nan nan nan nan nan nan nan nan nan nan nan nan nan nan nan 180 190 184 182 181 182 183 185 187 195 205 206 205 205 199 201 195 196 206 207 200 202 203 202 203 204 206 208 212 213 215 215 214 215 219 222 223
nan nan nan nan nan nan nan nan nan nan nan nan nan nan nan nan nan nan nan nan nan nan nan nan nan nan nan nan nan nan nan nan nan nan nan nan nan nan nan nan nan nan nan nan nan nan nan nan nan nan 185 181 181 185 187 189 193 184 nan 195 193 195 192 188 176 177 186 nan nan nan 200 204 201 202 204 206 208 211 215 217 219 217 217 218 221 222
nan nan nan nan nan nan nan nan nan nan nan nan nan nan nan nan nan nan nan nan nan nan nan nan nan nan nan nan nan nan nan nan nan nan nan nan nan nan nan nan nan nan nan nan nan nan nan nan nan 178 181 179 182 187 184 189 195 195 199 200 194 189 188 181 165 171 172 nan nan nan nan 199 206 203 202 205 209 213 215 217 218 219 221 222 221 220
nan nan nan nan nan nan nan nan nan nan nan nan nan nan nan nan nan nan nan nan nan nan nan nan nan nan nan nan nan nan nan nan nan nan nan nan nan nan nan nan nan nan nan nan nan nan nan nan nan nan 181 180 184 187 186 186 191 194 195 189 186 185 189 191 175 166 156 nan nan nan 191 200 203 203 201 202 210 214 219 219 217 217 220 224 226 227
nan nan nan nan nan nan nan nan nan nan nan nan nan nan nan nan nan nan nan nan nan nan nan nan nan nan nan nan nan nan nan nan nan nan nan nan nan nan nan nan nan nan nan nan nan nan nan nan nan nan 173 183 188 191 190 186 190 194 191 181 184 189 192 193 nan nan 162 nan 176 nan 187 198 202 201 202 199 202 213 223 224 221 221 220 222 224 225
nan nan nan nan nan nan nan nan nan nan nan nan nan nan nan nan nan nan nan nan nan nan nan nan nan nan nan nan nan nan nan nan nan nan nan nan nan nan nan nan nan nan nan nan nan nan nan 174 170 nan 182 188 189 193 194 190 192 194 184 177 183 192 197 202 nan 173 170 188 194 202 203 198 200 204 208 213 206 202 203 210 217 223 224 224 223 222
nan nan nan nan nan nan nan nan nan nan nan nan nan nan nan nan nan nan nan nan nan nan nan nan nan nan nan nan nan nan nan nan nan nan nan nan nan nan nan nan nan nan nan nan nan nan nan nan nan 189 192 189 185 189 192 190 191 191 185 185 186 192 200 207 200 186 188 185 184 192 198 199 200 203 207 212 206 200 203 206 203 207 215 220 219 218
nan nan nan nan nan nan nan nan nan nan nan nan nan nan nan nan nan nan nan nan nan nan nan nan nan nan nan nan nan nan nan nan nan nan nan nan nan nan nan nan nan nan nan nan nan nan nan nan 192 195 196 191 187 189 190 190 190 189 186 187 191 193 198 204 203 199 199 196 191 190 191 196 197 201 204 205 205 204 200 199 204 210 208 208 210 213
nan nan nan nan nan nan nan nan nan nan nan nan nan nan nan nan nan nan nan nan nan nan nan nan nan nan nan nan nan nan nan nan nan nan nan nan nan nan nan nan nan nan nan nan nan nan nan nan nan 196 198 196 193 193 192 191 192 190 190 190 192 193 198 202 201 199 199 199 196 194 195 199 201 201 204 202 200 204 206 201 196 196 198 201 207 211
nan nan nan nan nan nan nan nan nan nan nan nan nan nan nan nan nan nan nan nan nan nan nan nan nan nan nan nan nan nan nan nan nan nan nan nan nan nan nan nan nan nan nan nan nan nan nan nan nan nan 201 203 200 199 197 194 193 193 194 195 196 196 198 197 199 201 200 197 197 195 192 192 199 210 210 210 211 210 208 208 218 215 210 202 199 202
nan nan nan nan nan nan nan nan nan nan nan nan nan nan nan nan nan nan nan nan nan nan nan nan nan nan nan nan nan nan nan nan nan nan nan nan nan nan nan nan nan nan nan nan nan nan nan nan nan nan 201 nan nan 205 203 199 195 195 197 199 199 200 198 197 197 200 200 199 199 196 193 194 194 197 203 211 215 213 217 216 215 224 229 221 212 209